Wind_Speed
9 9 9 9 7 7 7 7 7 7 7 7 8 9 9 8 8 8 9 9 9 8 8 8 9 10 10 10 10 10 10 11 11 11 10 10 10 10 11 11 11 12 11
9 9 10 9 8 8 8 8 8 8 8 8 9 9 9 8 8 8 8 9 9 9 9 9 9 9 10 9 10 10 11 11 11 11 11 11 11 11 11 11 11 12 12
10 9 9 8 9 9 8 8 8 8 8 9 9 9 9 9 8 8 8 9 9 10 10 10 10 10 10 10 10 10 10 10 10 11 11 12 11 11 12 12 11 11 11
11 10 9 9 9 9 9 9 9 8 8 9 8 8 8 9 9 8 9 9 9 10 10 10 11 10 11 11 12 11 10 11 11 11 10 11 12 13 13 13 13 13 13
12 11 11 10 9 9 9 9 9 9 8 8 8 8 9 9 9 9 9 9 10 10 10 11 11 11 11 12 12 12 12 12 12 12 12 12 12 13 13 14 14 14 14
13 11 11 11 10 10 10 9 9 8 8 9 9 9 9 9 9 9 9 10 10 10 11 11 11 12 12 13 13 13 13 12 13 13 12 13 13 13 13 14 14 14 14
13 12 13 12 12 11 10 10 10 9 9 9 9 9 9 9 9 10 9 10 11 10 11 11 12 12 12 13 13 13 13 12 13 13 13 14 14 14 15 15 15 15 15
13 12 13 12 11 11 11 11 11 10 9 9 9 10 10 9 9 10 10 10 11 11 11 12 12 13 13 13 13 13 13 13 13 13 13 14 15 15 15 16 16 16 16
12 12 12 12 12 12 12 12 11 11 11 10 10 10 10 10 10 10 11 10 10 11 12 12 12 13 13 13 12 13 14 14 14 14 15 15 15 15 15 16 15 16 16
11 12 12 12 12 12 12 11 11 11 11 10 11 11 11 11 11 11 11 11 11 11 12 12 12 12 13 12 12 13 14 15 16 15 15 15 15 15 15 16 16 16 16
11 11 11 12 12 11 11 11 11 11 11 11 11 12 12 11 11 11 11 11 11 12 12 12 12 12 12 13 13 14 14 15 16 16 15 16 16 15 16 16 16 16 16
12 12 12 12 11 11 11 11 11 12 12 12 12 12 12 12 12 12 12 11 11 12 12 12 12 12 12 12 13 14 14 14 15 15 15 16 16 16 16 16 16 16 17
12 12 12 12 11 11 11 12 12 12 12 12 12 12 12 13 13 13 13 13 13 13 13 12 12 12 11 12 13 14 14 14 15 15 16 16 16 16 16 17 17 17 17
12 13 12 12 11 11 12 12 12 13 13 13 13 13 13 13 14 14 14 14 14 14 13 12 13 12 12 12 13 14 14 15 15 15 16 16 16 16 17 18 18 18 17
13 13 13 12 12 12 12 12 13 13 14 14 14 14 14 14 14 14 15 15 14 13 13 14 13 13 12 13 14 14 15 15 15 15 16 17 17 17 17 18 18 18 18
14 14 14 14 13 13 13 14 14 14 14 14 13 14 14 14 14 15 15 15 14 14 14 14 14 14 14 15 15 15 16 16 15 16 17 18 18 18 18 18 19 18 19
15 15 14 14 14 14 14 14 14 15 14 14 14 14 14 14 14 14 15 15 15 15 15 15 15 15 16 16 16 16 16 16 16 17 18 18 19 19 19 19 19 19 19
16 16 15 15 15 15 15 15 15 15 14 14 14 14 14 14 14 15 15 15 15 15 15 15 15 16 16 16 16 16 16 17 17 18 18 18 19 18 19 19 18 18 19
17 17 17 16 16 16 15 15 15 15 15 15 14 14 14 13 14 15 15 15 15 16 16 16 15 16 16 16 17 17 16 17 17 18 17 18 19 19 19 18 18 19 20
17 18 18 18 17 17 16 16 16 16 15 15 15 14 14 14 15 15 16 16 16 16 15 15 15 16 16 16 16 17 16 17 17 18 18 18 19 19 19 19 19 19 20
18 18 19 19 18 18 17 16 16 16 16 16 15 15 15 15 16 15 16 16 16 16 16 15 16 16 16 16 16 17 17 17 17 18 18 19 19 19 19 20 20 20 20
20 20 20 20 20 19 18 18 17 17 17 16 16 16 16 17 17 17 17 17 17 17 16 16 17 17 16 17 17 17 18 18 18 18 18 18 19 19 20 20 21 20 21
21 22 22 21 21 21 20 19 19 19 18 18 17 17 17 17 17 17 18 18 18 18 17 17 18 18 18 17 18 18 19 19 19 19 20 20 20 20 21 21 22 22 22
22 22 22 22 22 21 21 21 21 20 20 19 18 18 18 18 18 18 18 18 18 19 19 18 19 18 18 18 19 19 20 21 20 21 22 21 21 21 21 22 22 23 23
23 24 23 23 23 23 22 22 22 22 21 21 21 20 20 20 19 20 19 19 19 19 19 19 19 19 19 19 20 21 22 22 22 22 22 22 22 22 22 22 23 23 23
23 23 24 23 23 23 23 23 23 22 22 22 22 22 22 22 21 21 21 20 20 20 20 20 20 20 20 20 21 22 23 23 23 22 22 22 22 23 22 21 21 22 22
Wind_Direction
263 261 259 256 257 261 262 264 258 256 259 261 266 269 272 270 267 264 265 267 267 269 269 266 263 264 264 267 267 263 265 267 270 271 269 266 269 272 271 275 272 272 272
267 267 267 259 262 262 260 261 256 258 262 264 268 273 278 276 270 269 264 264 265 267 268 269 267 269 264 264 266 264 265 268 272 272 270 269 272 274 279 276 274 273 271
270 265 260 259 261 259 256 254 257 262 263 263 268 271 276 280 278 273 269 265 265 265 266 269 272 271 270 269 272 267 268 271 273 273 271 274 276 278 283 282 278 279 276
271 262 262 260 259 257 255 255 258 261 263 264 267 270 275 276 275 274 273 271 269 268 268 267 271 271 272 272 272 271 272 276 276 275 276 276 275 277 280 281 280 280 277
271 264 261 262 261 260 258 260 261 261 263 266 267 268 276 279 280 275 274 274 273 271 269 269 271 271 272 273 273 273 273 272 275 276 276 275 276 278 279 278 278 278 278
272 269 264 261 261 261 262 264 266 264 266 266 270 270 277 283 284 279 276 276 277 274 269 269 270 272 273 273 272 272 271 270 273 275 276 276 278 280 280 281 279 277 278
270 268 267 262 262 260 262 260 261 264 269 268 270 274 276 283 289 285 279 278 278 276 271 270 272 274 275 275 272 270 271 271 272 274 277 278 279 281 277 280 280 278 279
265 266 265 263 263 261 260 264 262 262 267 272 274 273 274 281 289 287 280 278 275 275 272 271 273 276 278 279 273 270 272 274 274 276 278 281 282 282 281 282 280 278 281
261 264 265 261 261 264 265 265 265 263 266 271 276 276 278 282 289 288 281 277 275 274 274 274 274 276 278 277 274 273 272 273 275 276 276 280 283 285 282 283 281 280 281
261 263 263 263 261 262 264 267 266 267 270 274 277 278 278 282 285 287 283 278 279 279 277 278 277 277 278 275 274 274 273 273 275 276 275 278 281 286 286 284 282 281 280
260 259 262 263 259 260 263 266 267 272 271 276 280 280 279 284 283 284 283 281 279 278 279 280 278 278 276 275 276 276 275 276 277 278 277 278 281 283 287 287 284 284 281
258 257 260 262 257 259 261 265 268 272 276 279 280 281 283 286 286 287 286 283 280 278 278 279 280 279 278 277 277 277 279 280 281 281 281 282 282 284 287 288 286 285 283
258 257 258 262 258 258 258 262 267 274 278 281 281 282 284 286 289 290 290 287 282 280 280 280 279 280 280 280 280 279 281 282 280 281 281 283 284 285 287 287 287 288 286
258 256 260 262 259 257 259 264 268 275 278 282 282 283 287 288 289 291 290 288 284 280 280 281 279 280 281 281 281 282 281 280 279 280 282 283 285 285 285 286 288 289 286
259 258 259 261 259 259 260 263 269 276 280 280 280 282 285 288 288 290 290 285 282 280 281 280 279 279 279 281 282 284 284 283 278 279 282 284 285 287 287 286 287 288 286
262 264 262 260 261 260 260 262 270 274 276 278 280 282 282 285 287 289 290 285 282 279 280 279 278 277 279 282 284 284 283 282 277 277 281 284 286 287 288 287 287 287 285
264 265 261 260 262 263 262 263 268 273 275 278 282 283 284 286 288 288 289 286 283 282 283 282 279 281 283 285 286 283 282 278 277 279 282 285 286 288 288 287 286 285 284
262 263 260 260 261 264 265 265 266 267 272 276 279 280 282 286 286 288 288 287 284 283 283 283 281 282 284 286 286 282 279 276 277 280 281 285 287 290 291 289 285 285 284
263 262 260 260 262 264 264 266 266 267 271 276 277 279 280 283 285 288 288 288 286 284 283 284 283 283 284 284 284 283 280 280 280 281 283 286 288 290 291 291 287 285 285
265 264 260 260 263 265 265 265 264 268 271 274 276 278 278 281 285 288 288 288 287 284 285 285 283 284 283 282 283 282 280 281 281 283 285 289 291 291 290 288 287 286 285
263 262 260 262 264 265 264 264 264 267 271 273 275 275 277 281 284 286 289 290 288 284 284 285 284 284 282 281 282 282 281 281 281 284 288 290 290 289 290 288 286 286 284
261 261 260 262 262 263 263 263 265 267 269 272 274 275 277 282 284 285 288 290 288 286 283 283 286 285 281 279 279 282 283 281 281 286 288 289 288 288 286 286 285 284 285
261 260 259 260 261 262 262 263 264 265 267 270 273 276 279 282 284 285 288 289 288 286 284 285 287 286 282 279 279 281 282 284 284 286 288 289 288 287 286 287 285 285 285
260 261 260 260 261 261 263 263 263 263 266 268 271 275 278 281 282 283 286 287 286 286 284 284 287 285 280 278 280 283 284 286 287 287 290 291 289 288 288 287 286 285 285
261 261 260 261 261 262 263 263 263 264 265 267 270 273 277 280 280 282 283 284 285 286 283 283 285 284 281 280 281 283 285 285 287 289 291 292 291 290 290 288 287 285 284
262 261 259 261 262 261 261 261 262 263 265 267 270 272 275 277 277 280 282 282 283 285 283 283 284 284 283 282 282 283 283 284 287 287 288 289 289 290 289 289 288 287 287
Height
5864 5865 5865 5866 5866 5867 5867 5868 5868 5868 5869 5869 5869 5869 5870 5870 5870 5870 5870 5870 5871 5871 5872 5872 5872 5872 5872 5873 5873 5873 5874 5875 5875 5875 5875 5876 5877 5877 5878 5878 5878 5878 5879
5862 5863 5864 5864 5865 5865 5865 5866 5866 5867 5867 5868 5868 5868 5868 5868 5868 5869 5869 5869 5869 5869 5870 5870 5870 5870 5871 5871 5871 5872 5872 5873 5873 5873 5874 5874 5875 5875 5875 5876 5876 5876 5876
5860 5861 5862 5862 5863 5863 5864 5864 5865 5865 5866 5866 5866 5866 5866 5866 5866 5867 5867 5867 5867 5867 5868 5868 5868 5869 5869 5869 5870 5870 5870 5871 5871 5871 5872 5872 5873 5873 5873 5873 5873 5873 5874
5858 5859 5860 5860 5861 5861 5862 5863 5863 5863 5864 5864 5864 5865 5865 5864 5864 5865 5865 5865 5865 5865 5866 5866 5866 5866 5867 5867 5867 5868 5868 5869 5869 5869 5869 5870 5870 5871 5871 5871 5871 5871 5871
5856 5857 5857 5858 5858 5859 5860 5860 5861 5861 5862 5862 5862 5863 5863 5863 5863 5863 5863 5863 5863 5863 5863 5864 5864 5864 5864 5865 5865 5865 5866 5866 5867 5867 5867 5867 5867 5868 5868 5868 5868 5868 5868
5853 5854 5855 5856 5856 5857 5857 5858 5859 5859 5860 5860 5860 5861 5861 5861 5861 5861 5861 5861 5861 5861 5861 5861 5862 5862 5862 5862 5862 5863 5863 5863 5864 5864 5864 5864 5865 5865 5865 5865 5865 5865 5865
5851 5852 5853 5853 5854 5855 5855 5856 5856 5857 5858 5858 5858 5859 5858 5859 5859 5858 5858 5858 5858 5858 5858 5859 5859 5859 5859 5859 5859 5860 5860 5860 5861 5861 5861 5862 5862 5862 5862 5862 5862 5862 5861
5848 5849 5850 5851 5852 5852 5853 5854 5854 5855 5855 5856 5856 5856 5856 5857 5856 5856 5856 5856 5856 5856 5856 5856 5856 5856 5856 5856 5856 5857 5857 5857 5858 5858 5858 5858 5858 5858 5858 5858 5858 5858 5858
5846 5846 5848 5848 5849 5850 5851 5851 5852 5852 5853 5853 5853 5854 5854 5854 5853 5853 5853 5853 5853 5853 5853 5853 5853 5853 5853 5853 5853 5854 5854 5854 5854 5855 5855 5855 5855 5855 5854 5854 5854 5854 5853
5843 5844 5845 5846 5846 5847 5848 5849 5850 5850 5850 5850 5850 5851 5851 5851 5851 5850 5850 5849 5849 5849 5849 5850 5849 5849 5849 5850 5850 5850 5850 5851 5851 5851 5851 5851 5851 5851 5851 5850 5850 5850 5849
5840 5841 5842 5843 5844 5845 5845 5846 5847 5847 5847 5848 5848 5848 5848 5848 5847 5847 5847 5846 5846 5846 5846 5846 5846 5846 5846 5846 5846 5847 5847 5847 5847 5847 5847 5847 5847 5847 5847 5846 5845 5845 5844
5837 5838 5839 5840 5841 5842 5843 5843 5844 5844 5844 5844 5845 5845 5845 5845 5844 5844 5843 5843 5843 5843 5842 5843 5843 5843 5843 5843 5843 5843 5843 5843 5843 5843 5843 5843 5843 5843 5843 5842 5841 5841 5840
5834 5835 5836 5837 5838 5839 5840 5840 5841 5841 5841 5841 5841 5841 5841 5841 5841 5841 5840 5840 5839 5839 5839 5839 5839 5839 5839 5839 5839 5839 5839 5839 5839 5839 5839 5839 5839 5838 5838 5838 5837 5836 5835
5831 5832 5833 5834 5835 5836 5836 5837 5838 5838 5838 5838 5838 5838 5838 5838 5837 5837 5837 5836 5836 5836 5835 5836 5835 5835 5836 5836 5835 5835 5835 5835 5835 5835 5835 5835 5834 5834 5833 5833 5832 5831 5830
5828 5829 5830 5831 5832 5832 5833 5834 5835 5835 5835 5835 5835 5835 5835 5834 5834 5833 5833 5833 5833 5832 5832 5832 5832 5832 5832 5832 5831 5831 5831 5831 5831 5831 5831 5830 5830 5829 5828 5828 5827 5826 5825
5825 5826 5827 5828 5828 5829 5830 5830 5831 5831 5831 5831 5831 5831 5831 5831 5830 5830 5829 5829 5829 5829 5828 5828 5828 5828 5828 5828 5827 5827 5827 5826 5826 5826 5826 5826 5825 5825 5824 5823 5822 5821 5820
5821 5822 5823 5824 5825 5826 5826 5827 5827 5827 5827 5827 5827 5827 5827 5827 5827 5826 5826 5825 5825 5824 5824 5824 5824 5824 5823 5823 5823 5823 5822 5822 5822 5822 5822 5821 5820 5820 5818 5817 5816 5815 5815
5818 5819 5820 5821 5821 5822 5822 5823 5823 5824 5824 5823 5823 5823 5823 5823 5823 5823 5822 5822 5821 5821 5820 5820 5820 5820 5819 5819 5819 5818 5818 5818 5818 5818 5817 5816 5815 5814 5813 5812 5810 5810 5809
5814 5814 5815 5817 5817 5818 5818 5819 5820 5820 5820 5820 5820 5820 5820 5820 5820 5819 5818 5818 5817 5817 5816 5816 5816 5815 5815 5815 5814 5814 5813 5813 5813 5812 5812 5811 5810 5809 5808 5807 5805 5804 5804
5809 5810 5811 5812 5813 5814 5814 5815 5815 5816 5816 5816 5816 5816 5816 5816 5816 5815 5814 5814 5813 5813 5812 5812 5811 5811 5810 5810 5809 5809 5809 5809 5809 5808 5807 5806 5805 5804 5803 5802 5801 5800 5799
5804 5805 5806 5807 5808 5809 5810 5811 5811 5812 5812 5812 5812 5812 5813 5812 5812 5811 5811 5810 5809 5808 5808 5807 5807 5806 5806 5805 5805 5804 5804 5804 5804 5803 5802 5801 5800 5799 5798 5797 5796 5795 5794
5799 5800 5801 5802 5803 5804 5805 5806 5806 5807 5807 5808 5808 5808 5808 5808 5808 5807 5806 5806 5805 5804 5804 5803 5802 5802 5801 5801 5800 5800 5799 5799 5799 5799 5797 5796 5795 5794 5793 5791 5790 5789 5788
5794 5795 5796 5797 5798 5799 5800 5801 5801 5802 5803 5803 5803 5804 5804 5804 5803 5803 5802 5801 5801 5800 5799 5798 5798 5797 5796 5796 5795 5795 5794 5794 5793 5793 5791 5791 5789 5788 5787 5785 5784 5783 5782
5787 5789 5790 5791 5792 5793 5794 5795 5796 5797 5797 5798 5798 5799 5799 5799 5798 5798 5798 5797 5796 5795 5794 5794 5793 5792 5791 5791 5790 5790 5789 5788 5788 5787 5785 5785 5783 5782 5781 5779 5778 5776 5775
5781 5782 5783 5785 5786 5787 5788 5789 5790 5791 5792 5793 5793 5793 5793 5793 5793 5793 5793 5792 5791 5790 5789 5788 5788 5787 5786 5786 5785 5784 5783 5783 5782 5781 5779 5778 5777 5776 5774 5773 5771 5770 5769
5774 5775 5777 5778 5780 5781 5782 5783 5784 5785 5786 5787 5787 5787 5787 5788 5788 5787 5787 5786 5786 5785 5784 5783 5782 5781 5781 5780 5779 5778 5777 5777 5776 5775 5774 5772 5770 5769 5768 5767 5765 5764 5762